www.pogodaiklimat.ru

Погода и климат >> Архив погоды >> Россия >> Карелия >> Сортавала


АРХИВ ПОГОДЫ в Сортавале

Время (UTC), дата Ветер
(напр.,м/с)
 
Видим.   Явления Облачность Т
(С)
Тd
(С)
f
(%)
Тe
(С)
Тes
(С)
Комфортность P
(гПа)
Po
(гПа)
Тmin
(С)
Tmax
(С)
R
(мм)
R24
(мм)
S
(см)
09 12.02 штиль 0 1500 м ливневой снег [диам. гололёда 2 мм] 10/10 270 м
[Cb cap]
+0.4 -0.6 93 -1 -1 998.0 995.7
12 12.02 СЗ 3 1700 м слаб. ливневой снег [диам. гололёда 8 мм] 10/10 270 м
[Cb cap]
-0.8 -2.2 90 -6 -6 999.0 996.7
15 12.02 СЗ 4 30 км в посл. час ливневой снег 9/8 700 м
[Cb cap Ac trans]
-2.6 -4.5 87 -9 -9 1001.7 999.3 6
18 12.02 СЗ 3 50 км {ливн. осадки} 10/10 420 м
[Cb cap]
-3.9 -6.2 84 -9 -9 1004.1 1001.7 +0.5 6
21 12.02 СЗ 3 50 км 5/0
[Ac trans Ci fib]
-6.5 -8.8 84 -12 -12 1006.3 1003.9
00 13.02 СЗ 3 50 км 10/10 630 м
[Sc]
-7.1 -9.0 86 -13 -13 1007.5 1005.1
03 13.02 СЗ 1 50 км 10/10 570 м
[Sc]
-7.3 -9.3 86 -10 -10 1007.9 1005.5 -7.4
06 13.02 штиль 0 15 км 1/1 600 м
[Sc]
-11.8 -13.8 85 -12 -12 1008.2 1005.7 -12.3 55
09 13.02 Ю 1 11 км {туман} 9/9 240 м
[St]
-8.5 -11.0 82 -11 -11 1009.1 1006.7
12 13.02 штиль 0 20 км {туман} 10/10 420 м
[Cb cap]
-6.9 -9.4 82 -8 -8 1008.7 1006.3
15 13.02 штиль 0 18 км 10/10 270 м
[St]
-5.9 -8.0 85 -7 -7 1009.2 1006.8
18 13.02 штиль 0 3800 м слаб. ливневой снег 10/10 570 м
[Cb cap]
-4.5 -6.2 88 -6 -6 1009.2 1006.8 -4.5 0.0
21 13.02 Ю 1 3600 м слаб. ливневой снег 10/10 540 м
[Cb cap]
-2.1 -3.5 90 -4 -4 1009.4 1007.0
00 14.02 штиль 0 4800 м слаб. ливневой снег 10/10 500 м
[Cb cap]
-1.5 -2.9 90 -3 -3 1009.9 1007.5
03 14.02 штиль 0 15 км {ливн. осадки} 10/10 500 м
[Cb cap]
-1.6 -2.9 91 -3 -3 1011.5 1009.1 -5.9 2
06 14.02 штиль 0 7000 м дымка {ливн. осадки} 10/10 240 м
[St]
-1.9 -3.2 91 -3 -3 1013.6 1011.2 -4.5 2 56
09 14.02 штиль 0 8000 м в посл. час зёрна 10/10 210 м
[St]
-0.2 -2.1 87 -1 -1 1015.7 1013.3
12 14.02 З 1 20 км {снег} 10/10 360 м
[Cb cap]
+0.2 -2.5 82 -2 -2 1015.2 1012.8
15 14.02 ЮЗ 2 4500 м слаб. ливневой снег 10/10 420 м
[Cb cap]
-0.7 -2.6 87 -4 -4 1014.6 1012.2 0.0
18 14.02 Ю 2 21 км {ливн. осадки} 10/10 420 м
[Cb cap]
0.0 -1.9 87 -4 -4 1009.6 1007.2 +0.5 0.0
21 14.02 З 2 50 км 4/4 600 м
[Sc]
+0.7 -1.5 85 -3 -3 1005.6 1003.3
00 15.02 З 2 50 км 8/0
[Ac trans]
+1.0 -1.2 85 -2 -2 1004.1 1001.8
03 15.02 З 3 50 км 3/0
[Ac trans]
+1.0 -1.3 85 -3 -3 1003.9 1001.6 -1.0
06 15.02 З 3 50 км ясно +1.4 -1.7 80 -3 -3 1004.0 1001.7 0.0 55
09 15.02 З 4 50 км 6/0
[Ci fib]
+3.8 -1.7 67 -0 +1 1004.9 1002.6
12 15.02 З 3 50 км 6/0
[Ci fib]
+4.6 -2.1 62 +1 +2 1005.3 1003.0
15 15.02 З 3 50 км 9/0
[Ci]
+4.2 -3.6 57 +1 +1 1006.6 1004.3
18 15.02 СЗ 4 50 км 8/0
[Ac trans Ci fib]
+3.2 -3.8 60 -1 -1 1008.4 1006.1 +5.4
21 15.02 З 1 50 км 6/0
[Ci fib]
+0.9 -4.0 70 -1 -1 1010.3 1007.9
00 16.02 штиль 0 50 км 6/0
[Ci fib]
-3.0 -5.3 84 -4 -4 1011.8 1009.4
03 16.02 штиль 0 50 км 8/0
[Ci fib]
-3.8 -5.5 88 -5 -5 1010.6 1008.2 -4.1
06 16.02 штиль 0 20 км туман поземный 9/8 1140 м
[Sc Ci fib]
-3.2 -4.5 91 -4 -4 1007.9 1005.5 -6.1 52
09 16.02 Ю 3 19 км 10/10 330 м
[St]
+0.5 -1.3 88 -4 -4 1004.4 1002.1
12 16.02 ЮЗ 3 20 км 10/10 500 м
[Sc]
+1.8 -0.9 82 -2 -2 1000.5 998.2
15 16.02 ЮЗ 1 50 км {метель} 9/3 600 м
[Sc Ac trans Ci fib]
+1.5 -1.9 78 -0 -0 998.1 995.8
18 16.02 штиль 0 50 км 9/0
[Ac trans Ci fib]
-1.7 -3.1 90 -3 -3 995.4 993.1 +2.1
21 16.02 З 3 50 км 9/0
[Ac trans Ci fib]
+3.4 -3.0 63 -0 -0 993.4 991.1
00 17.02 З 4
{11}
50 км ясно +2.1 -5.8 56 -2 -2 992.7 990.4
03 17.02 З 5-11
{13}
50 км 9/9 1440 м
[Cb cap]
+1.6 -6.6 54 -3 -3 992.2 989.9 -2.1
06 17.02 СЗ 6-12
{14}
50 км 9/4 600 м
[Sc Ac trans]
+1.8 -5.8 57 -4 -4 993.2 990.9 -1.7 51
09 17.02 СЗ 9-15
{17}
50 км {ливн. осадки} 9/3 600 м
[Cb cap Ac trans]
+1.4 -7.9 50 -5 -5 998.4 996.1
12 17.02 СЗ 8-15
{18}
50 км {ливн. осадки} 8/8 1380 м
[Sc]
+1.2 -8.9 47 -5 -5 1003.7 1001.4
15 17.02 СЗ 6-11
{16}
50 км 8/8 1410 м
[Sc]
0.0 -10.4 45 -6 -6 1009.2 1006.8 0.0
18 17.02 СЗ 4
{12}
50 км 8/0
[Ci fib]
-2.0 -11.7 47 -7 -7 1013.4 1011.0 +2.0 0.0
21 17.02 СЗ 2 50 км 6/0
[Ci fib]
-4.2 -12.4 53 -8 -8 1017.4 1015.0
00 18.02 СЗ 2 50 км 9/0
[Ci fib]
-6.7 -12.5 63 -11 -11 1019.7 1017.3
03 18.02 СЗ 1 50 км 9/0
[Ci fib]
-8.0 -12.5 70 -10 -10 1021.4 1018.9 -8.1
06 18.02 штиль 0 50 км 4/0
[Ci fib]
-12.2 -14.2 85 -12 -12 1022.2 1019.7 -12.4 49
09 18.02 штиль 0 50 км 9/0
[Ac trans Ci fib]
-5.9 -11.7 64 -6 -5 1022.2 1019.8
12 18.02 Ю 3 50 км 10/0
[Ac und]
-3.3 -8.3 68 -8 -8 1019.8 1017.4
15 18.02 Ю 4 50 км 10/0
[Ac und]
-2.3 -9.5 58 -8 -8 1016.0 1013.6
18 18.02 Ю 5
{10}
50 км 10/10 1080 м
[Sc]
-1.6 -8.9 57 -8 -8 1010.6 1008.2 -1.4
21 18.02 Ю 2 50 км 10/10 800 м
[Sc]
-0.5 -7.1 61 -4 -4 1005.5 1003.1
00 19.02 ЮЗ 3 13 км 10/10 300 м
[St]
+0.9 -1.7 83 -4 -4 1001.9 999.6
03 19.02 ЮЗ 3 11 км слаб. ливневой дождь 10/10 360 м
[Cb cap]
+2.0 -0.3 85 -2 -2 1000.1 997.8 -2.4 0.3
06 19.02 ЮЗ 2 50 км {ливн. осадки} 10/10 570 м
[Sc]
+2.2 -0.2 84 -1 -1 999.9 997.6 -1.6 0.3 49

 

Местоположение метеостанции Сортавала (Карелия, Россия): широта 61.72 долгота 30.72 высота над уровнем моря 19 м.

В архиве по умолчанию представлена погода в Сортавале за последнюю неделю. Архивные данные за месяц целиком и за предыдущие месяцы, начиная с января 2011 года, Вы можете получить, выбрав интересующий диапазон дат из раскрывающегося списка и нажав кнопку "Ввод!".


*Определитесь, кто Вы:
робот инопланетянин человек

Внимание! Время в таблицах - всемирное. Для получения местного времени необходимо прибавить поправку, которая равна 3 ч.

Смотрите также архив погоды в соседних городах и на ближайших метеорологических станциях:

Погода на Валаам Острове (Карелия, Россия) (40 км)
Погода в Вяртсиле (Карелия, Россия) (51 км)
Погода в Тохмаярви (Финляндия) (61 км)
Погода в Париккала Коицанлахти (Финляндия) (74 км)
Погода в Лаукансаари (Финляндия) (74 км)
Погода в Суоярви (Карелия, Россия) (97 км)
Погода в Савонлинне (Финляндия) (97 км)
Погода в Липери Туискаванлуото (Финляндия) (107 км)
Погода в Йоэнсуу (Финляндия) (111 км)
Погода в Мекриярви (Финляндия) (118 км)

Пояснения к столбцам:

Ветер - указаны скорость ветра в м/с - средняя за 10 мин, порывы в срок и между сроками (в фигурных скобках) и направление, откуда дует ветер: С - северный, СВ - северо-восточный, В - восточный, ЮВ - юго-восточный, Ю - южный, ЮЗ - юго-западный, З - западный, СЗ - северо-западный.
Видимость - горизонтальная дальность видимости в метрах или километрах. При видимости от 1 до 10 км при отсутствии осадков обычно наблюдается дымка, при ухудшении видимости до 1 км и менее - туман. В сухую погоду видимость может ухудшаться дымом, пылью или мглою.
Явления - указаны атмосферные явления, наблюдавшиеся в срок или в последний час перед сроком; фигурными скобками обозначены явления, наблюдавшиеся между сроками (за 1-3 часа до срока); квадратными скобками обозначены град или гололедные отложения с указанием их диаметра в мм.
Облачность - указаны через наклонную черту общая и нижняя облачность в баллах и высота нижней границы облаков в метрах; квадратными скобками обозначены формы облаков: Ci - перистые, Cs - перисто-слоистые, Cc - перисто-кучевые, Ac - высококучевые, As - высокослоистые, Sc - слоисто-кучевые, Ns - слоисто-дождевые, Cu - кучевые, Cb - кучево-дождевые. Подробнее классификацию облаков см. в Атласе облаков (PDF).
T - Температура воздуха - температура, измеренная на высоте 2 м над землей.
Td - Температура точки росы - температура, при понижении до которой содержащийся в воздухе водяной пар достигнет насыщения.
f - Относительная влажность воздуха - влажноcть воздуха, измеренная на высоте 2 м над землей.
Te - Эффективная температура - температура, которую ощущает одетый по сезону человек в тени. Характеристика душности погоды. При расчете учитывается влияние влажности воздуха и скорости ветра на теплоощущения человека.
Tes - Эффективная температура на солнце - температура, которую ощущает человек, с поправкой на солнечный нагрев. Характеристика знойности погоды. Зависит от высоты солнца над горизонтом, облачности и скорости ветра. Ночью, в пасмурную погоду, а также при ветре 12 м/с и более поправка равна нулю.
P - Атмосферное давление - приведенное к уровню моря атмосферное давление.
Po - Атмосферное давление - измеренное на уровне метеостанции атмосферное давление.
Tmin - Минимальная температура - минимум температуры воздуха на высоте 2 м над землей.
Tmax - Максимальная температура - максимум температуры воздуха на высоте 2 м над землей.
R - Количество осадков - Количество выпавших осадков за период времени, мм. При наведении курсора мыши на число - период времени, за который выпало указанное количество осадков.
R24 - Количество осадков - Количество выпавших осадков за 24 часа, мм.
S - Снежный покров - Высота снежного покрова, см. При наведении курсора мыши на число - состояние снежного покрова и степень покрытия местности в баллах.